EHI
0 0 0 0 0 0 0 0 0 0 0 0 0 0 0 0 0 0 0 0 0 0 0 0 0 0 0 0 0 0 0 0 0 0 0 0 0 0 0 0 0 0 0 0
0 0 0 0 0 0 0 0 0 0 0 0 0 0 0 0 0 0 0 0 0 0 0 0 0 0 0 0 0 0 0 0 0 0 0 0 0 0 0 0 0 0 0 0
0 0 0 0 0 0 0 0 0 0 0 0 0 0 0 0 0 0 0 0 0 0 0 0 0 0 0 0 0 0 0 0 0 0 0 0 0 0 0 0 0 0 0 0
0 0 0 0 0 0 0 0 0 0 0 0 0 0 0 0 0 0 0 0 0 0 0 0 0 0 0 0 0 0 0 0 0 0 0 0 0 0 0 0 0 0 0 0
0 0 0 0 0 0 0 0 0 0 0 0 0 0 0 0 0 0 0 0 0 0 0 0 0 0 0 0 0 0 0 0 0 0 0 0 0 0 0 0 0 0 0 0
0 0 0 0 0 0 0 0 0 0 0 0 0 0 0 0 0 0 0 0 0 0 0 0 0 0 0 0 0 0 0 0 0 0 0 0 0 0 0 0 0 0 0 0
0 0 0 0 0 0 0 0 0 0 0 0 0 0 0 0 0 0 0 0 0 0 0 0 0 0 0 0 0 0 0 0 0 0 0 0 0 0 0 0 0 0 0 0
0 0 0 0 0 0 0 0 0 0 0 0 0 0 0 0 0 0 0 0 0 0 0 0 0 0 0 0 0 0 0 0 0 0 0 0 0 0 0 0 0 0 0 0
0 0 0 0 0 0 0 0 0 0 0 0 0 0 0 0 0 0 0 0 0 0 0 0 0 0 0 0 0 0 0 0 0 0 0 0 0 0 0 0 0 0 0 0
0 0 0 0 0 0 0 0 0 0 0 0 0 0 0 0 0 0 0 0 0 0 0 0 0 0 0 0 0 0 0 0 0 0 0 0 0 0 0 0 0 0 0 0
0 0 0 0 0 0 0 0 0 0 0 0 0 0 0 0 0 0 0 0 0 0 0 0 0 0 0 0 0 0 0 0 0 0 0 0 0 0 0 0 0 0 0 0
0 0 0 0 0 0 0 0 0 0 0 0 0 0 0 0 0 0 0 0 0 0 0 0 0 0 0 0 0 0 0 0 0 0 0 0 0 0 0 0 0 0 0 0
0 0 0 0 0 0 0 0 0 0 0 0 0 0 0 0 0 0 0 0 0 0 0 0 0 0 0 0 0 0 0 0 0 0 0 0 0 0 0 0 0 0 0 0
0 0 0 0 0 0 0 0 0 0 0 0 0 0 0 0 0 0 0 0 0 0 0 0 0 0 0 0 0 0 0 0 0 0 0 0 0 0 0 0 0 0 0 0
0 0 0 0 0 0 0 0 0 0 0 0 0 0 0 0 0 0 0 0 0 0 0 0 0 0 0 0 0 0 0 0 0 0 0 0 0 0 0 0 0 0 0 0
0 0 0 0 0 0 0 0 0 0 0 0 0 0 0 0 0 0 0 0 0 0 0 0 0 0 0 0 0 0 0 0 0 0 0 0 0 0 0 0 0 0 0 0
0 0 0 0 0 0 0 0 0 0 0 0 0 0 0 0 0 0 0 0 0 0 0 0 0 0 0 0 0 0 0 0 0 0 0 0 0 0 0 0 0 0 0 0
0 0 0 0 0 0 0 0 0 0 0 0 0 0 0 0 0 0 0 0 0 0 0 0 0 0 0 0 0 0 0 0 0 0 0 0 0 0 0 0 0 0 0 0
0 0 0 0 0 0 0 0 0 0 0 0 0 0 0 0 0 0 0 0 0 0 0 0 0 0 0 0 0 0 0 0 0 0 0 0 0 0 0 0 0 0 0 0
0 0 0 0 0 0 0 0 0 0 0 0 0 0 0 0 0 0 0 0 0 0 0 0 0 0 0 0 0 0 0 0 0 0 0 0 0 0 0 0 0 0 0 0
0 0 0 0 0 0 0 0 0 0 0 0 0 0 0 0 0 0 0 0 0 0 0 0 0 0 0 0 0 0 0 0 0 0 0 0 0 0 0 0 0 0 0 0
0 0 0 0 0 0 0 0 0 0 0 0 0 0 0 0 0 0 0 0 0 0 0 0 0 0 0 0 0 0 0 0 0 0 0 0 0 0 0 0 0 0 0 0
0 0 0 0 0 0 0 0 0 0 0 0 0 0 0 0 0 0 0 0 0 0 0 0 0 0 0 0 0 0 0 0 0 0 0 0 0 0 0 0 0 0 0 0
0 0 0 0 0 0 0 0 0 0 0 0 0 0 0 0 0 0 0 0 0 0 0 0 0 0 0 0 0 0 0 0 0 0 0 0 0 0 0 0 0 0 0 0
0 0 0 0 0 0 0 0 0 0 0 0 0 0 0 0 0 0 0 0 0 0 0 0 0 0 0 0 0 0 0 0 0 0 0 0 0 0 0 0 0 0 0 0
0 0 0 0 0 0 0 0 0 0 0 0 0 0 0 0 0 0 0 0 0 0 0 0 0 0 0 0 0 0 0 0 0 0 0 0 0 0 0 0 0 0 0 0
0 0 0 0 0 0 0 0 0 0 0 0 0 0 0 0 0 0 0 0 0 0 0 0 0 0 0 0 0 0 0 0 0 0 0 0 0 0 0 0 0 0 0 0
Wind_Speed
2 2 3 5 7 10 10 6 6 5 8 10 8 7 6 5 4 5 6 6 6 6 5 5 5 5 4 4 3 3 4 4 5 6 6 7 7 8 8 8 8 8 8 8
5 3 5 6 8 10 10 8 8 9 8 4 5 5 5 4 4 5 5 5 5 6 6 6 5 5 4 4 3 3 4 4 5 5 6 6 7 7 8 7 8 8 7 7
6 5 5 8 9 11 7 7 6 5 3 6 7 6 5 4 4 5 5 4 5 5 5 5 5 4 4 4 3 4 4 4 4 5 6 6 7 7 7 7 7 8 7 7
4 6 8 4 4 5 5 4 7 7 7 7 7 7 6 5 5 5 4 4 5 5 5 5 5 4 4 4 4 5 5 4 4 5 5 6 6 7 7 7 7 7 7 7
5 6 4 4 5 6 6 4 3 4 4 4 4 5 2 2 3 5 4 4 4 4 4 5 4 5 5 5 5 5 5 5 4 5 5 6 6 7 6 7 7 7 7 7
6 6 6 6 7 3 5 5 3 2 3 3 4 3 4 6 5 4 3 3 4 4 5 5 5 4 6 6 6 5 5 5 5 5 5 6 6 7 6 6 6 7 6 7
8 6 4 6 4 5 7 3 4 1 2 3 4 5 6 6 5 4 3 3 3 4 5 5 4 5 7 7 7 5 5 5 6 6 6 6 6 6 6 6 6 6 7 6
7 8 5 7 8 7 2 4 1 1 2 3 4 4 5 5 5 4 4 3 3 4 4 4 4 6 8 8 7 5 5 7 7 7 6 5 6 6 6 6 6 6 6 6
6 1 5 3 2 2 2 2 1 2 2 3 2 3 4 4 5 5 5 4 4 4 5 4 4 6 8 8 7 6 7 8 8 8 7 7 7 6 6 5 5 6 5 5
6 5 4 4 3 2 1 1 1 1 1 1 2 3 4 5 6 6 6 6 5 5 5 6 5 5 7 8 7 8 9 9 8 8 8 7 6 6 6 5 5 5 5 5
7 5 6 6 6 5 4 4 4 4 4 4 4 5 6 6 7 7 7 7 6 6 6 8 8 7 7 8 8 9 10 9 9 9 8 8 7 6 7 6 5 6 6 5
8 11 10 9 10 8 7 6 5 6 7 7 6 6 7 7 7 8 8 8 8 8 8 9 9 9 9 9 9 9 9 9 7 7 7 7 7 7 9 10 8 10 10 9
3 7 7 11 11 9 8 8 7 6 7 7 7 7 7 7 8 8 9 10 10 10 10 10 10 11 12 11 10 9 9 9 7 7 7 7 7 8 7 8 13 13 13 12
10 12 10 11 10 10 10 9 8 8 8 7 7 7 7 8 9 10 10 10 10 10 11 11 12 13 14 13 12 10 10 8 8 7 8 8 8 8 8 8 7 7 10 14
13 7 9 11 13 12 11 10 9 8 8 8 8 8 8 8 9 9 9 9 9 10 11 12 12 14 14 14 13 12 10 8 8 8 8 8 8 8 8 10 9 8 7 7
14 11 14 15 14 13 12 11 9 9 8 7 7 8 8 8 8 8 9 9 10 11 12 12 13 14 14 14 14 11 9 11 11 9 8 8 8 8 8 9 9 9 8 8
20 18 18 17 15 14 12 10 9 8 8 8 7 7 7 7 8 9 9 9 9 9 11 12 13 13 13 14 14 10 10 10 12 9 8 8 8 8 9 9 9 9 9 8
16 15 17 17 15 14 13 11 9 9 8 7 7 7 7 8 8 8 8 8 8 9 11 12 13 13 13 14 13 10 10 10 10 10 9 9 10 9 9 9 10 11 10 9
14 16 16 15 14 13 12 11 10 9 8 7 7 7 7 7 6 6 6 8 9 10 11 12 14 13 13 15 14 10 11 11 11 11 10 11 10 10 10 10 10 10 10 10
16 17 16 15 13 12 11 10 10 9 7 7 7 6 6 5 5 5 6 6 6 7 9 11 11 11 12 13 15 10 11 12 12 11 11 11 11 11 11 11 11 11 11 10
18 17 16 14 13 12 11 10 9 9 7 6 5 4 4 3 3 4 4 4 6 8 9 10 8 9 11 13 13 10 10 11 11 11 11 11 11 12 12 12 12 12 11 11
16 15 15 14 13 11 10 9 8 8 7 5 4 3 1 1 2 3 3 3 5 8 8 7 7 11 14 15 9 9 10 11 10 10 10 11 11 11 12 13 12 12 12 12
14 14 14 13 12 11 10 8 8 7 6 5 3 2 1 2 3 3 4 4 6 9 9 7 10 15 17 11 9 9 10 11 11 11 11 11 11 11 11 13 12 12 12 12
13 13 12 11 11 10 10 9 8 6 5 4 3 3 3 3 3 4 5 6 8 10 8 8 12 15 15 9 9 9 10 10 10 11 11 11 11 11 11 12 12 12 12 14
13 12 12 11 10 8 9 8 8 7 6 5 5 5 5 4 5 5 6 8 9 10 8 9 12 13 11 9 9 10 10 10 11 12 11 11 11 12 12 12 12 12 12 12
11 10 9 9 8 6 6 6 6 5 5 5 4 4 4 4 5 6 6 7 9 9 9 8 9 10 9 9 10 11 11 12 11 11 12 12 13 13 12 12 16 13 12 12
10 9 7 7 6 6 6 6 6 6 5 5 5 4 4 5 5 6 7 7 7 7 8 8 8 9 9 9 10 11 11 11 11 12 12 12 12 12 12 15 13 13 13 13
Wind_Direction
115 105 188 202 194 199 223 254 275 302 301 309 327 327 318 303 272 248 242 242 248 257 269 269 270 277 284 291 286 293 306 319 332 334 334 332 335 335 339 342 340 341 339 339
179 185 217 231 217 211 229 248 259 278 287 306 320 307 297 288 264 254 249 247 251 255 262 267 270 280 291 285 279 284 301 320 330 323 329 329 331 334 338 339 340 342 339 340
194 166 216 231 210 201 206 214 234 258 325 337 315 316 314 314 285 267 263 256 254 257 263 268 276 289 291 292 285 278 292 306 314 318 323 328 331 332 332 333 339 337 338 338
202 190 227 98 101 178 199 215 228 259 292 307 307 306 295 293 292 281 267 257 252 256 260 260 260 265 274 267 266 277 289 296 304 309 315 321 326 329 329 332 335 330 332 332
223 219 214 161 167 180 196 175 195 245 287 319 318 272 177 44 318 295 285 271 266 268 266 265 266 271 268 263 262 270 279 286 295 301 309 314 320 324 331 329 326 324 330 328
218 230 220 152 130 165 222 186 142 233 301 328 299 293 51 22 348 324 304 280 270 261 256 259 261 261 265 271 269 270 271 275 283 292 298 303 312 318 321 318 317 316 321 321
224 234 224 117 138 182 211 137 113 240 304 307 309 351 357 346 342 332 322 305 281 265 261 268 271 260 264 274 276 278 270 267 268 271 278 290 299 304 306 311 314 314 314 314
208 222 202 131 175 202 59 67 96 298 316 314 319 337 341 343 352 356 346 337 306 283 278 276 270 264 270 277 282 277 262 257 260 264 269 275 279 289 298 305 304 307 311 322
215 208 79 150 213 17 321 269 332 326 335 313 324 5 10 10 8 7 359 350 330 307 301 297 282 273 279 288 288 272 261 258 261 263 260 263 270 277 286 291 295 306 314 318
208 199 172 168 180 181 215 210 53 20 22 27 41 33 31 27 20 14 8 1 349 334 323 322 320 303 294 300 292 275 267 265 263 262 263 261 258 266 274 285 290 297 306 312
216 166 171 196 192 172 152 139 120 98 78 64 63 51 41 37 28 18 12 7 2 354 343 336 334 330 325 317 304 287 278 271 267 263 264 267 260 254 261 266 271 278 294 298
214 186 186 175 162 163 153 139 127 117 95 72 62 57 52 47 34 26 21 15 13 8 357 350 349 349 346 337 319 302 294 290 282 274 265 261 265 258 229 236 242 236 247 267
125 136 130 132 145 154 146 131 118 106 95 85 69 61 57 53 42 35 29 24 19 15 8 3 1 360 355 345 332 316 304 300 293 283 276 267 263 265 269 238 225 234 238 240
142 134 140 155 153 151 142 133 122 108 94 82 74 66 61 58 49 40 32 25 23 24 19 14 11 7 357 348 339 328 318 312 304 293 283 276 271 267 265 269 264 249 226 226
173 176 153 145 144 147 146 144 133 117 102 89 77 69 62 58 51 42 32 24 28 30 23 16 12 5 357 351 345 338 333 327 320 308 295 284 277 271 268 264 263 263 259 223
163 150 146 149 150 150 152 149 136 121 109 96 83 73 67 63 58 48 38 29 29 28 20 14 11 2 355 353 349 344 339 337 328 316 308 301 291 280 272 268 266 264 258 254
158 162 163 159 155 152 149 143 132 124 115 101 89 81 76 71 62 50 40 34 33 30 21 14 6 358 357 357 353 347 343 341 336 325 322 317 310 299 288 279 273 270 266 259
172 164 161 156 151 147 144 139 132 125 115 108 102 91 78 67 57 46 36 29 29 28 21 11 1 354 360 2 355 349 347 346 344 340 334 330 322 315 308 297 288 281 277 264
153 149 147 146 145 144 142 140 135 127 122 118 107 94 82 68 56 44 34 30 22 16 9 1 352 355 0 3 354 349 351 349 347 346 342 337 331 327 322 315 308 298 290 282
144 142 142 142 144 144 141 140 137 131 126 122 115 105 90 70 48 33 27 31 23 4 350 348 346 355 355 357 351 350 352 351 349 348 347 344 340 336 332 327 321 315 307 296
145 145 145 146 145 146 145 145 142 136 133 132 124 108 88 64 36 15 6 8 8 355 341 336 341 350 350 344 340 347 349 348 348 347 346 344 342 340 336 333 328 323 318 312
149 150 150 149 149 149 150 149 145 144 146 146 142 133 108 37 8 352 347 335 333 335 327 329 341 346 340 332 334 341 342 343 342 342 341 340 339 337 336 334 329 326 323 319
153 153 154 156 155 151 152 156 159 163 166 168 173 187 253 311 314 310 316 329 325 328 318 321 332 330 329 326 331 334 335 336 337 336 335 334 333 331 330 329 327 325 322 320
155 157 156 155 155 159 165 170 173 177 184 196 213 237 259 272 280 282 291 299 302 306 305 314 316 323 322 319 326 328 328 329 329 328 327 325 325 324 323 322 321 320 319 318
159 159 160 164 170 175 175 173 179 189 202 216 228 236 246 257 273 290 296 298 302 300 303 311 316 317 314 319 323 323 321 321 321 318 315 316 317 317 316 316 316 315 313 313
165 168 172 181 183 180 179 184 194 199 208 221 234 243 249 254 263 271 278 287 296 299 302 308 313 312 316 320 319 316 315 315 313 312 313 313 312 312 311 312 312 310 309 308
173 175 180 188 190 193 194 198 207 213 219 229 244 252 260 267 271 278 285 292 299 304 307 309 312 314 315 315 314 313 313 313 312 311 310 309 309 308 307 308 307 305 304 303